Content
SEND FEEDBACK

Daily
Averages
Monthly
Summary
United Kingdom

SHEERNESS, ENGLAND


Home > Europe > United Kingdom > England
Elevation: 82 feet     Latitude: 51 27N     Longitude: 000 45E

WEATHER
 
SELECT A DAY
Number of Records: 210,514;   Date Range: 7/1/96 - 7/20/14
 
SHARE

PRINT THIS DATA

[ ← Previous Day ]
WEATHER ALMANAC - DECEMBER 7, 2013
[ Next Day → ]
[ °C ]   °F
Weather ElementAverageHighLow
Temperature44.9 °F48.2 °F (11:20 am)39.2 °F (5:50 pm)
Dewpoint39.8 °F41 °F (1:50 am)35.6 °F (6:20 pm)
Humidity82.3 %93 % (5:50 pm)71 % (12:20 pm)
Barometer30.28 in30.33 in (1:50 am)30.27 in (12:50 pm)
Wind Speed9.4 mph12.7 mph (12:20 pm)
Weather ElementAverage
Visibility6.2 mi
Wind DirectionWSW (243.7 °)

Weather ElementTotal
Precipitation---
Heating Degree Days21.3 (Base 65)
Averaged from 41 records on December 7, 2013
WEATHER CONDITIONS BREAKOUT
WIND DIRECTION BREAKOUT
WEATHER BY HOUR - DECEMBER 7, 2013
[ °C ]   °F
Local TimeTemperatureDewpointHumidityBarometerVisibilityWind DirectionWind SpeedGust SpeedPrecipitationEventsConditions
1:50 AM46.4 °F41.0 °F81 %30.33 in6.2 miWSW (250°)8.1 mphMostly Cloudy
2:50 AM44.6 °F41.0 °F87 %30.33 in6.2 miWSW (240°)6.9 mphScattered Clouds
3:50 AM44.6 °F41.0 °F87 %30.30 in6.2 miWSW (250°)6.9 mphMostly Cloudy
4:50 AM44.6 °F39.2 °F81 %30.30 in6.2 miWSW (250°)8.1 mphRainLight Rain
5:20 AM44.6 °F39.2 °F81 %30.30 in6.2 miWSW (250°)8.1 mphLight Drizzle
5:50 AM42.8 °F39.2 °F87 %30.30 in6.2 miWSW (250°)6.9 mphScattered Clouds
6:20 AM44.6 °F39.2 °F81 %30.30 in6.2 miWSW (250°)8.1 mphScattered Clouds
6:50 AM42.8 °F39.2 °F87 %30.30 in6.2 miWSW (240°)8.1 mphScattered Clouds
7:20 AM42.8 °F39.2 °F87 %30.30 in6.2 miSW (230°)9.2 mphScattered Clouds
8:20 AM42.8 °F39.2 °F87 %30.30 in6.2 miWSW (240°)8.1 mphScattered Clouds
8:50 AM44.6 °F39.2 °F81 %30.30 in6.2 miWSW (250°)9.2 mphMostly Cloudy
9:20 AM46.4 °F41.0 °F81 %30.30 in6.2 miWest (260°)9.2 mphMostly Cloudy
9:50 AM46.4 °F41.0 °F81 %30.30 in6.2 miWSW (250°)10.4 mphMostly Cloudy
10:20 AM46.4 °F41.0 °F81 %30.30 in6.2 miWest (260°)9.2 mphMostly Cloudy
10:50 AM46.4 °F41.0 °F81 %30.30 in6.2 miWSW (250°)10.4 mphRainLight Rain Showers
11:20 AM48.2 °F41.0 °F76 %30.30 in6.2 miWest (260°)9.2 mphMostly Cloudy
11:50 AM48.2 °F41.0 °F76 %30.30 in6.2 miWest (260°)8.1 mphMostly Cloudy
12:20 PM48.2 °F39.2 °F71 %30.30 in6.2 miWSW (250°)12.7 mphMostly Cloudy
12:50 PM48.2 °F41.0 °F76 %30.27 in6.2 miWSW (250°)11.5 mphScattered Clouds
1:20 PM48.2 °F39.2 °F71 %30.27 in6.2 miWSW (250°)11.5 mphScattered Clouds
1:50 PM48.2 °F41.0 °F76 %30.27 in6.2 miWest (260°)11.5 mphPartly Cloudy
2:20 PM48.2 °F41.0 °F76 %30.27 in6.2 miWest (260°)11.5 mphMostly Cloudy
2:50 PM48.2 °F41.0 °F76 %30.27 in6.2 miWSW (250°)10.4 mphMostly Cloudy
3:20 PM46.4 °F39.2 °F76 %30.27 in6.2 miWSW (240°)9.2 mphScattered Clouds
3:50 PM46.4 °F39.2 °F76 %30.27 in6.2 miWSW (240°)9.2 mphScattered Clouds
4:20 PM46.4 °F41.0 °F81 %30.27 in6.2 miSW (230°)9.2 mphScattered Clouds
4:50 PM42.8 °F39.2 °F87 %30.27 in6.2 miSW (230°)8.1 mphPartly Cloudy
5:20 PM41.0 °F37.4 °F87 %30.27 inSW (220°)8.1 mphClear
5:50 PM39.2 °F37.4 °F93 %30.27 inSW (230°)9.2 mphClear
6:20 PM39.2 °F35.6 °F87 %30.27 inSW (230°)8.1 mphClear
6:50 PM42.8 °F37.4 °F81 %30.27 inWSW (240°)8.1 mphClear
7:20 PM41.0 °F37.4 °F87 %30.27 inSW (230°)9.2 mphClear
7:50 PM42.8 °F39.2 °F87 %30.27 inSW (230°)9.2 mphClear
8:20 PM41.0 °F39.2 °F93 %30.27 inSW (230°)10.4 mphClear
8:50 PM42.8 °F39.2 °F87 %30.27 inSW (230°)10.4 mphClear
9:20 PM44.6 °F41.0 °F87 %30.27 inWSW (240°)9.2 mphClear
9:50 PM44.6 °F41.0 °F87 %30.27 inWSW (240°)9.2 mphClear
10:20 PM46.4 °F41.0 °F81 %30.27 inWSW (240°)11.5 mphClear
10:50 PM44.6 °F41.0 °F87 %30.27 in6.2 miWSW (240°)11.5 mphPartly Cloudy
11:20 PM46.4 °F41.0 °F81 %30.27 in6.2 miWSW (250°)11.5 mphPartly Cloudy
11:50 PM46.4 °F41.0 °F81 %30.27 inWSW (240°)10.4 mphClear
Hourly data recorded from EGMC, located miles away from Sheerness, England







STORIES FROM OUR PARTNERS